[[{"header":{"parameterUnit":"m.s-1","parameterCategory":2,"la1":30.2991,"la2":30.254,"lo1":-89.0895,"lo2":-89.0444,"dy":0.0017,"dx":0.0017,"nx":28,"ny":28,"refTime":"2026-02-15T09:00:00:Z","depth":"0","parameterNumber":2,"parameterNumberName":"U-component_of_CURRENTS"},"data":[0,0,0,0,0,0,0,0,0,0,0,0,0,0,0,0,0,0,0,0,0,0,0,0,0,0,0,0,0,0,0,0,0,0,0,0,0,0,0,0,0,0,0,0,0,0,0,0,0,0,0,0,0,0,0,0,0,0,0.2895,0.2895,0,0.2903,0.2902,0.2902,0.2885,0.2884,0.2884,0.2884,0.2863,0.2863,0.2862,0,0,0,0,0,0,0,0,0,0,0,0,0,0.288,0.288,0.2895,0.2895,0.2896,0.2903,0.2902,0.2902,0.2885,0.2884,0.2884,0.2884,0.2863,0.2863,0.2862,0,0,0,0,0,0,0,0,0,0,0,0,0,0.2884,0.288,0.2895,0.289,0.289,0.2903,0.2902,0.2902,0.2885,0.2884,0.2884,0.2884,0.2863,0.2863,0.2862,0.2867,0,0,0.2861,0.2861,0,0,0,0,0,0,0,0,0.2884,0.2884,0.289,0.289,0.289,0.2895,0.289,0.289,0.2885,0.2883,0.2884,0.2883,0.2874,0.2872,0.287,0.2866,0.2865,0.2861,0.2861,0.286,0.286,0,0,0,0,0,0,0,0.2883,0.2884,0.2894,0.2891,0.2891,0.2893,0.2893,0.289,0.2877,0.2883,0.2883,0.2889,0.2873,0.2871,0.287,0.2865,0.2861,0.286,0.286,0.286,0.2894,0.2895,0,0,0,0,0,0,0.2889,0.2883,0.2894,0.2895,0.289,0.2894,0.2893,0.2891,0.2878,0.2877,0.289,0.2889,0.2872,0.287,0.2869,0.2892,0.286,0.286,0.286,0.2893,0.2894,0.2896,0,0,0,0,0,0,0.2888,0.2889,0.2894,0.2892,0.2894,0.2895,0.2893,0.2892,0.2892,0.2884,0.2881,0.2891,0.2871,0.2869,0.2875,0.2891,0.286,0.2859,0.2892,0.2893,0.2895,0.2928,0,0,0,0,0,0,0.2887,0.2889,0.289,0.2893,0.2894,0.2902,0.2893,0.2892,0.2898,0.2896,0.2884,0.2882,0.2871,0.2876,0.2875,0.2889,0.2859,0.289,0.2892,0.2894,0.2925,0.293,0.2935,0,0,0,0,0,0.2887,0.2888,0.2889,0.2891,0.2895,0.2902,0.2903,0.29,0.2899,0.2898,0.2898,0.2882,0.289,0.2877,0.2875,0.289,0.2889,0.2892,0.2894,0.2923,0.2929,0.2935,0,0,0,0,0,0,0.2881,0.2886,0.2888,0.289,0.2898,0.29,0.2904,0.2905,0.2904,0.2903,0.2893,0.2891,0.2905,0.2895,0.2881,0.2909,0.2889,0.2891,0.2911,0.2917,0.2922,0.2928,0.2859,0,0,0,0,0,0.2882,0.2882,0.2891,0.2894,0.2899,0.2903,0.2907,0.2907,0.2909,0.2908,0.2903,0.2904,0.2915,0.2913,0.2917,0.2926,0.2935,0.2937,0.2942,0.2946,0.2952,0.2989,0.2998,0.2904,0.2904,0.2904,0,0,0.2879,0.2885,0.2884,0.2893,0.2898,0.291,0.2903,0.2911,0.2922,0.2907,0.2917,0.2921,0.2924,0.2938,0.2944,0.293,0.2978,0.295,0.2953,0.2957,0.2993,0.3002,0.301,0.2906,0.2906,0.2906,0,0,0.2877,0.2881,0.2882,0.2893,0.2907,0.2915,0.292,0.2926,0.2929,0.2943,0.2943,0.2958,0.2962,0.2971,0.2976,0.3011,0.3007,0.3012,0.3035,0.3071,0.3079,0.3086,0.3109,0.3118,0.301,0.301,0.301,0,0.2877,0.2876,0.2884,0.2896,0.2905,0.292,0.2927,0.2941,0.2948,0.2959,0.2951,0.2988,0.2982,0.3017,0.3026,0.3022,0.3038,0.301,0.3078,0.3085,0.3091,0.3113,0.3123,0.3012,0.3011,0.3011,0.3011,0,0.2877,0.2882,0.2886,0.2905,0.2917,0.2926,0.295,0.2961,0.2972,0.2992,0.3027,0.3031,0.3053,0.3057,0.3048,0.3096,0.3091,0.3083,0.3061,0.3103,0.3123,0.3132,0.3014,0.3014,0.3013,0.3013,0,0,0.2859,0.2879,0.2881,0.2888,0.292,0.2928,0.2957,0.2985,0.3017,0.3036,0.3073,0.3096,0.3109,0.3117,0.3116,0.3142,0.3195,0.313,0.3131,0.315,0.3273,0.3256,0.3264,0.3201,0.3203,0.3204,0.3267,0,0.2854,0.2865,0.288,0.2897,0.2906,0.2932,0.2963,0.2998,0.3033,0.3078,0.3106,0.3147,0.3132,0.3146,0.3173,0.3195,0.3221,0.3179,0.3232,0.3234,0.3211,0.3275,0.3245,0.3298,0.3276,0.3278,0.3279,0,0.2846,0.2856,0.286,0.2891,0.2899,0.2916,0.2965,0.2996,0.3073,0.3108,0.3162,0.3191,0.324,0.3217,0.3285,0.326,0.3269,0.3282,0.3284,0.3264,0.3235,0.3254,0.3316,0.3277,0.3293,0.3292,0.3291,0,0.2816,0.2841,0.2838,0.2849,0.2891,0.2899,0.2929,0.3001,0.3038,0.3133,0.3178,0.3247,0.3285,0.3319,0.3346,0.332,0.342,0.3385,0.338,0.3378,0.3361,0.3355,0.339,0.3434,0.3434,0.3434,0.3434,0,0.28,0.2801,0.2822,0.2823,0.2835,0.2879,0.2915,0.2965,0.3053,0.3112,0.3191,0.3249,0.3314,0.3372,0.3381,0.3423,0.3452,0.3403,0.3404,0.3371,0.3365,0.3336,0.33,0.3436,0.3436,0.3435,0.3435,0,0.2762,0.2776,0.2775,0.2807,0.2815,0.2823,0.2887,0.2925,0.3025,0.3102,0.3134,0.3264,0.3353,0.3413,0.3482,0.3469,0.3403,0.3506,0.3459,0.3453,0.3385,0.3351,0.3021,0.2964,0.3506,0.3506,0.3506,0,0.274,0.2733,0.2744,0.2739,0.2746,0.2771,0.2793,0.2891,0.294,0.3102,0.3134,0.3265,0.3354,0.3474,0.35,0.3545,0.3402,0.3513,0.3452,0.3397,0.336,0.3012,0.2965,0.3443,0.3443,0.3443,0.3442,0,0.2699,0.2697,0.2695,0.2682,0.2685,0.2695,0.2737,0.2774,0.2899,0.2987,0.3109,0.3204,0.3364,0.3431,0.3512,0.3519,0.3334,0.3504,0.3471,0.3341,0.2939,0.2882,0.3375,0.3439,0.344,0.344,0.344,0.344,0.2663,0.2643,0.2634,0.2614,0.2613,0.2606,0.2599,0.2671,0.2741,0.2857,0.3009,0.3137,0.335,0.3477,0.3461,0.3453,0.3278,0.3396,0.3369,0.3023,0.2926,0.3403,0.3449,0.3449,0.3449,0.345,0.345,0,0.261,0.2588,0.2568,0.2529,0.2495,0.2525,0.2546,0.2539,0.2583,0.2752,0.2864,0.31,0.3222,0.3348,0.3437,0.3361,0.31,0.3286,0.2859,0.2839,0.3343,0.3311,0.33,0.33,0.33,0.33,0.33,0.33,0.258,0.2534,0.2513,0.2421,0.2394,0.2333,0.2329,0.2339,0.2428,0.256,0.2696,0.2844,0.3101,0.325,0.3262,0.3228,0.2952,0.2734,0.2695,0.3186,0.3194,0.3202,0.3166,0.3124,0.3124,0.2053,0.2046,0.2041]},{"header":{"parameterUnit":"m.s-1","parameterCategory":2,"la1":30.2991,"la2":30.254,"lo1":-89.0895,"lo2":-89.0444,"dy":0.0017,"dx":0.0017,"nx":28,"ny":28,"refTime":"2026-02-15T09:00:00:Z","depth":"0","parameterNumber":3,"parameterNumberName":"V-component_of_CURRENTS"},"data":[0,0,0,0,0,0,0,0,0,0,0,0,0,0,0,0,0,0,0,0,0,0,0,0,0,0,0,0,0,0,0,0,0,0,0,0,0,0,0,0,0,0,0,0,0,0,0,0,0,0,0,0,0,0,0,0,0,0,0.054,0.054,0,0.0505,0.0504,0.0504,0.0472,0.0472,0.0472,0.0472,0.0406,0.0405,0.0403,0,0,0,0,0,0,0,0,0,0,0,0,0,0.0518,0.0519,0.054,0.054,0.054,0.0505,0.0504,0.0503,0.0472,0.0472,0.0472,0.0472,0.0407,0.0405,0.0403,0,0,0,0,0,0,0,0,0,0,0,0,0,0.0508,0.0519,0.054,0.0522,0.052,0.0505,0.0504,0.0503,0.0473,0.0472,0.0472,0.0472,0.0407,0.0405,0.0403,0.0393,0,0,0.0395,0.0394,0,0,0,0,0,0,0,0,0.0509,0.0509,0.0525,0.0523,0.0521,0.0494,0.0472,0.0466,0.0473,0.0488,0.0472,0.0472,0.0434,0.043,0.0421,0.039,0.0388,0.0395,0.0394,0.0393,0.0392,0,0,0,0,0,0,0,0.0509,0.051,0.0524,0.0524,0.0522,0.0493,0.0492,0.0471,0.0461,0.0487,0.0485,0.0484,0.0433,0.0424,0.042,0.0387,0.0395,0.0393,0.0392,0.0391,0.0347,0.0347,0,0,0,0,0,0,0.0522,0.0511,0.0525,0.0523,0.0516,0.0494,0.0493,0.0502,0.0462,0.0457,0.0485,0.0483,0.0428,0.0422,0.0417,0.0421,0.0393,0.0391,0.0389,0.0347,0.0347,0.0348,0,0,0,0,0,0,0.0521,0.0524,0.0527,0.0517,0.0516,0.0496,0.0505,0.0501,0.0495,0.0461,0.0454,0.0484,0.0427,0.042,0.0407,0.0417,0.039,0.0387,0.0347,0.0347,0.0347,0.0417,0,0,0,0,0,0,0.0521,0.0524,0.0532,0.0518,0.0517,0.0527,0.0506,0.0501,0.0496,0.0493,0.0458,0.0452,0.0427,0.0411,0.0404,0.0414,0.0385,0.0346,0.0347,0.0347,0.0415,0.042,0.0425,0,0,0,0,0,0.0521,0.0539,0.0532,0.0534,0.0529,0.0528,0.0525,0.0507,0.0496,0.0499,0.0476,0.0453,0.0409,0.0409,0.0402,0.0411,0.0346,0.0347,0.0347,0.0412,0.0419,0.0425,0,0,0,0,0,0,0.0531,0.0537,0.053,0.0548,0.0541,0.0524,0.0525,0.0513,0.0496,0.0493,0.0459,0.0451,0.0441,0.0415,0.0416,0.0398,0.0372,0.0372,0.0425,0.043,0.0435,0.0451,0.0384,0,0,0,0,0,0.0538,0.0553,0.0548,0.0561,0.0561,0.0543,0.0539,0.0529,0.0514,0.0507,0.0483,0.0456,0.0437,0.0427,0.0403,0.0396,0.0366,0.0395,0.04,0.0405,0.0412,0.0376,0.0378,0.0349,0.0349,0.0349,0,0,0.0543,0.055,0.0556,0.0564,0.0556,0.0571,0.054,0.0541,0.0549,0.0502,0.0503,0.0473,0.0438,0.0431,0.0424,0.0412,0.0397,0.0405,0.041,0.0414,0.0377,0.0379,0.0382,0.035,0.035,0.035,0,0,0.0566,0.0569,0.059,0.0594,0.0593,0.0588,0.0593,0.058,0.057,0.0567,0.0534,0.0514,0.0485,0.0464,0.0449,0.0466,0.0424,0.0456,0.0496,0.0462,0.0464,0.0466,0.0435,0.0433,0.046,0.046,0.046,0,0.057,0.0604,0.0594,0.0617,0.0629,0.0603,0.0631,0.0618,0.0601,0.0599,0.0577,0.0535,0.0502,0.0495,0.0499,0.0479,0.0452,0.0479,0.0469,0.047,0.0471,0.0438,0.0436,0.0464,0.0463,0.0463,0.0462,0,0.0613,0.0638,0.0652,0.0679,0.0688,0.0706,0.0698,0.0693,0.0677,0.0668,0.0652,0.0602,0.0581,0.0562,0.0536,0.0526,0.0504,0.048,0.0458,0.0478,0.0442,0.0438,0.0468,0.0467,0.0466,0.0465,0,0,0.0629,0.0675,0.068,0.0708,0.0727,0.0741,0.0752,0.0763,0.0781,0.0741,0.0754,0.0703,0.0674,0.0654,0.0611,0.0576,0.0552,0.0535,0.0531,0.0512,0.0478,0.0489,0.0484,0.0526,0.0526,0.0525,0.0453,0,0.0666,0.0732,0.0742,0.0801,0.0837,0.0824,0.0845,0.0846,0.0838,0.0841,0.0778,0.0774,0.0711,0.0702,0.0657,0.0582,0.0543,0.0574,0.0455,0.0451,0.0464,0.0481,0.0576,0.0522,0.0449,0.0448,0.0448,0,0.0709,0.0753,0.0822,0.0878,0.0891,0.0918,0.0954,0.0971,0.0962,0.0953,0.0926,0.0881,0.0829,0.0768,0.0647,0.067,0.0582,0.0514,0.0509,0.0493,0.0455,0.0488,0.0517,0.0477,0.0441,0.0441,0.0442,0,0.0742,0.0808,0.087,0.089,0.0945,0.0965,0.0992,0.1007,0.1041,0.1029,0.1048,0.097,0.094,0.0818,0.0678,0.0662,0.0542,0.05,0.0424,0.0423,0.0468,0.0472,0.0452,0.0411,0.0411,0.0411,0.0412,0,0.0788,0.0835,0.0891,0.0926,0.0999,0.1017,0.1092,0.1097,0.1133,0.1196,0.1114,0.1134,0.095,0.086,0.0713,0.0569,0.0567,0.0438,0.0409,0.0495,0.0503,0.0439,0.0395,0.0409,0.0409,0.041,0.041,0,0.0812,0.085,0.0926,0.0994,0.1019,0.1073,0.1166,0.1225,0.1242,0.1317,0.1319,0.1256,0.1148,0.0964,0.0772,0.0634,0.0478,0.0426,0.0542,0.0529,0.0419,0.0375,0.0325,0.0346,0.0331,0.0331,0.0331,0,0.0833,0.0876,0.0974,0.103,0.1063,0.1148,0.1218,0.1272,0.135,0.1404,0.1449,0.1368,0.1351,0.1076,0.0824,0.0584,0.0505,0.0486,0.0467,0.0438,0.0366,0.0358,0.0379,0.0549,0.0551,0.0552,0.0553,0,0.0871,0.0904,0.0969,0.1085,0.1169,0.1275,0.1379,0.146,0.1539,0.1618,0.1697,0.1689,0.1446,0.1271,0.0933,0.0746,0.0524,0.0506,0.0451,0.052,0.0536,0.0536,0.0565,0.0566,0.0564,0.0564,0.0563,0.0562,0.0895,0.0948,0.1039,0.1149,0.1252,0.1392,0.1504,0.1635,0.1788,0.1951,0.1911,0.2007,0.1735,0.1306,0.1005,0.0625,0.0606,0.0542,0.0485,0.0474,0.0524,0.0583,0.0565,0.0564,0.0563,0.0562,0.0561,0,0.0927,0.0997,0.11,0.124,0.1364,0.1415,0.1609,0.1754,0.1963,0.2164,0.2271,0.2333,0.1955,0.154,0.0999,0.0704,0.06,0.0545,0.0567,0.0583,0.062,0.0662,0.0698,0.0698,0.0698,0.0698,0.0698,0.0698,0.0948,0.1046,0.1106,0.1309,0.1415,0.161,0.1737,0.1964,0.2177,0.2537,0.2752,0.2879,0.2708,0.1589,0.0936,0.0732,0.0598,0.0524,0.0445,0.0471,0.0468,0.0464,0.0495,0.0495,0.0495,0.0512,0.0512,0.0511]}],[{"header":{"parameterUnit":"m.s-1","parameterCategory":2,"la1":30.2991,"la2":30.254,"lo1":-89.0895,"lo2":-89.0444,"dy":0.0017,"dx":0.0017,"nx":28,"ny":28,"refTime":"2026-02-15T09:00:00:Z","depth":"2","parameterNumber":2,"parameterNumberName":"U-component_of_CURRENTS"},"data":[0,0,0,0,0,0,0,0,0,0,0,0,0,0,0,0,0,0,0,0,0,0,0,0,0,0,0,0,0,0,0,0,0,0,0,0,0,0,0,0,0,0,0,0,0,0,0,0,0,0,0,0,0,0,0,0,0,0,0.2826,0.2827,0,0.2835,0.2835,0.2835,0.282,0.282,0.282,0.282,0.2803,0.2802,0.2802,0,0,0,0,0,0,0,0,0,0,0,0,0,0.2812,0.2811,0.2826,0.2827,0.2827,0.2835,0.2835,0.2835,0.2821,0.282,0.282,0.282,0.2803,0.2802,0.2802,0,0,0,0,0,0,0,0,0,0,0,0,0,0.2816,0.2811,0.2826,0.2823,0.2824,0.2835,0.2835,0.2835,0.2821,0.282,0.282,0.282,0.2803,0.2802,0.2802,0.2805,0,0,0.2801,0.28,0,0,0,0,0,0,0,0,0.2815,0.2816,0.2823,0.2824,0.2824,0.2829,0.2824,0.2825,0.2821,0.2818,0.282,0.282,0.2811,0.281,0.2808,0.2804,0.2803,0.2801,0.28,0.28,0.28,0,0,0,0,0,0,0,0.2815,0.2816,0.2827,0.2824,0.2824,0.2827,0.2827,0.2824,0.2813,0.2818,0.2818,0.2825,0.2811,0.2809,0.2808,0.2803,0.2801,0.28,0.28,0.28,0.2834,0.2836,0,0,0,0,0,0,0.282,0.2815,0.2826,0.2827,0.2823,0.2828,0.2827,0.2825,0.2814,0.2813,0.2825,0.2824,0.281,0.2808,0.2807,0.2832,0.28,0.28,0.2799,0.2833,0.2835,0.2836,0,0,0,0,0,0,0.282,0.2821,0.2826,0.2825,0.2826,0.2828,0.2826,0.2826,0.2827,0.282,0.2817,0.2828,0.2809,0.2808,0.2815,0.283,0.28,0.2799,0.2832,0.2834,0.2835,0.2868,0,0,0,0,0,0,0.2819,0.282,0.2822,0.2825,0.2826,0.2834,0.2827,0.2826,0.2833,0.2832,0.2822,0.282,0.2809,0.2815,0.2814,0.2829,0.2799,0.283,0.2833,0.2835,0.2865,0.2871,0.2875,0,0,0,0,0,0.2818,0.282,0.2822,0.2824,0.2827,0.2834,0.2835,0.2834,0.2834,0.2834,0.2835,0.282,0.2829,0.2816,0.2814,0.2829,0.2829,0.2832,0.2835,0.2863,0.287,0.2875,0,0,0,0,0,0,0.2814,0.2819,0.2821,0.2824,0.2831,0.2833,0.2837,0.2839,0.284,0.284,0.283,0.2829,0.2844,0.2835,0.2821,0.2848,0.2829,0.2831,0.2851,0.2857,0.2862,0.2868,0.2798,0,0,0,0,0,0.2815,0.2815,0.2824,0.2827,0.2832,0.2837,0.2841,0.2842,0.2845,0.2845,0.2841,0.2843,0.2854,0.2853,0.2857,0.2866,0.2874,0.2877,0.2882,0.2886,0.2892,0.2929,0.2937,0.2845,0.2845,0.2845,0,0,0.2813,0.2818,0.2817,0.2826,0.2831,0.2844,0.2838,0.2846,0.2857,0.2843,0.2854,0.2859,0.2862,0.2877,0.2883,0.2869,0.2918,0.289,0.2893,0.2897,0.2932,0.2941,0.2949,0.2846,0.2846,0.2846,0,0,0.2811,0.2816,0.2816,0.2828,0.2842,0.2849,0.2855,0.2862,0.2865,0.2881,0.2881,0.2897,0.2902,0.291,0.2916,0.2951,0.2946,0.2952,0.2975,0.3011,0.3018,0.3025,0.3048,0.3057,0.295,0.295,0.295,0,0.2811,0.2811,0.2819,0.283,0.2839,0.2855,0.2862,0.2876,0.2885,0.2896,0.2889,0.2927,0.2921,0.2955,0.2965,0.2961,0.2977,0.295,0.3017,0.3024,0.303,0.3052,0.3061,0.2952,0.2951,0.2951,0.2951,0,0.2811,0.2817,0.2822,0.284,0.2852,0.2861,0.2884,0.2897,0.2909,0.2928,0.2964,0.2969,0.2991,0.2995,0.2988,0.3035,0.303,0.3022,0.3,0.3042,0.3061,0.3071,0.2954,0.2954,0.2953,0.2953,0,0,0.2794,0.2815,0.2817,0.2823,0.2856,0.2863,0.2892,0.292,0.2952,0.2972,0.3009,0.3033,0.3047,0.3055,0.3055,0.308,0.3133,0.3069,0.307,0.3088,0.321,0.319,0.3198,0.3139,0.3141,0.3142,0.3204,0,0.279,0.2801,0.2816,0.2833,0.2841,0.2868,0.2898,0.2933,0.2968,0.3012,0.3041,0.3083,0.3069,0.3085,0.3111,0.3133,0.3159,0.3117,0.317,0.3171,0.3146,0.3209,0.2919,0.2949,0.3213,0.3214,0.3215,0,0.2782,0.2792,0.2796,0.2827,0.2834,0.2852,0.29,0.2931,0.3008,0.3043,0.3097,0.3126,0.3175,0.3154,0.3221,0.3197,0.3207,0.3219,0.3221,0.3198,0.3169,0.2951,0.2955,0.323,0.3229,0.3228,0.3227,0,0.2754,0.2778,0.2775,0.2786,0.2828,0.2836,0.2866,0.2937,0.2974,0.3068,0.3114,0.3182,0.322,0.3254,0.3281,0.3257,0.3354,0.332,0.3313,0.3311,0.3072,0.3047,0.3368,0.3368,0.3368,0.3368,0.3368,0,0.2738,0.274,0.2761,0.2762,0.2774,0.2818,0.2854,0.2904,0.2991,0.3049,0.3127,0.3183,0.3249,0.3306,0.3315,0.3355,0.3385,0.3335,0.3336,0.3076,0.3052,0.3298,0.3289,0.337,0.337,0.3369,0.3369,0,0.2701,0.2716,0.2715,0.2747,0.2755,0.2765,0.2828,0.2866,0.2965,0.304,0.3072,0.32,0.3287,0.3346,0.3414,0.34,0.3435,0.3435,0.3129,0.3093,0.3354,0.3346,0.3432,0.3432,0.3432,0.3432,0.3432,0,0.268,0.2674,0.2686,0.2681,0.2688,0.2715,0.2737,0.2834,0.2881,0.304,0.307,0.32,0.328,0.3397,0.3372,0.3402,0.3463,0.3166,0.3071,0.3374,0.3366,0.3358,0.335,0.2756,0.2751,0.2746,0.2743,0,0.264,0.264,0.2638,0.2626,0.263,0.264,0.2682,0.2717,0.284,0.2921,0.3039,0.3125,0.3235,0.3156,0.3213,0.3178,0.3141,0.308,0.3471,0.2806,0.2748,0.2737,0.2749,0.2702,0.2706,0.2709,0.2712,0.2713,0.2605,0.2586,0.2578,0.2559,0.256,0.2551,0.2544,0.2596,0.2657,0.2727,0.2892,0.2922,0.2973,0.292,0.2836,0.2753,0.2978,0.2837,0.2845,0.286,0.2792,0.274,0.2678,0.2682,0.2685,0.2688,0.269,0,0.2541,0.2533,0.2514,0.2476,0.2427,0.2473,0.2491,0.2444,0.2456,0.2546,0.2614,0.2442,0.2419,0.2461,0.2278,0.2301,0.2203,0.2205,0.2047,0.2092,0.213,0.2019,0.1703,0.1699,0.1696,0.1693,0,0,0.2508,0.2457,0.2436,0.2338,0.2325,0.2237,0.2231,0.2176,0.2186,0.2141,0.2135,0.2305,0.2421,0.2038,0.1989,0.1822,0.1928,0.1734,0.2533,0.2394,0.2428,0.2514,0.2397,0,0,0,0,0]},{"header":{"parameterUnit":"m.s-1","parameterCategory":2,"la1":30.2991,"la2":30.254,"lo1":-89.0895,"lo2":-89.0444,"dy":0.0017,"dx":0.0017,"nx":28,"ny":28,"refTime":"2026-02-15T09:00:00:Z","depth":"2","parameterNumber":3,"parameterNumberName":"V-component_of_CURRENTS"},"data":[0,0,0,0,0,0,0,0,0,0,0,0,0,0,0,0,0,0,0,0,0,0,0,0,0,0,0,0,0,0,0,0,0,0,0,0,0,0,0,0,0,0,0,0,0,0,0,0,0,0,0,0,0,0,0,0,0,0,0.0478,0.0477,0,0.0442,0.0442,0.0441,0.0411,0.0411,0.0411,0.0411,0.0346,0.0345,0.0343,0,0,0,0,0,0,0,0,0,0,0,0,0,0.0456,0.0457,0.0478,0.0477,0.0477,0.0442,0.0442,0.0441,0.0411,0.0411,0.0411,0.0411,0.0347,0.0345,0.0343,0,0,0,0,0,0,0,0,0,0,0,0,0,0.0446,0.0457,0.0478,0.046,0.0458,0.0442,0.0442,0.0441,0.0411,0.0411,0.0411,0.0411,0.0348,0.0345,0.0343,0.0332,0,0,0.0336,0.0335,0,0,0,0,0,0,0,0,0.0447,0.0447,0.0463,0.0461,0.0459,0.0433,0.041,0.0404,0.0412,0.0427,0.0411,0.0411,0.0374,0.0369,0.0361,0.0329,0.0327,0.0335,0.0334,0.0333,0.0332,0,0,0,0,0,0,0,0.0448,0.0448,0.0462,0.0462,0.046,0.0432,0.043,0.0409,0.04,0.0426,0.0424,0.0423,0.0372,0.0363,0.0359,0.0326,0.0335,0.0333,0.0332,0.0331,0.0287,0.0287,0,0,0,0,0,0,0.046,0.0449,0.0463,0.0461,0.0454,0.0433,0.0431,0.044,0.0401,0.0396,0.0423,0.0422,0.0367,0.0362,0.0357,0.0361,0.0333,0.0331,0.0329,0.0286,0.0287,0.0287,0,0,0,0,0,0,0.0459,0.0462,0.0464,0.0455,0.0453,0.0434,0.0443,0.0439,0.0434,0.04,0.0393,0.0423,0.0367,0.036,0.0347,0.0357,0.033,0.0327,0.0286,0.0287,0.0287,0.0357,0,0,0,0,0,0,0.0459,0.0462,0.047,0.0456,0.0454,0.0464,0.0444,0.0439,0.0435,0.0432,0.0398,0.0391,0.0366,0.035,0.0344,0.0354,0.0326,0.0286,0.0286,0.0287,0.0354,0.036,0.0364,0,0,0,0,0,0.0459,0.0476,0.047,0.0472,0.0467,0.0465,0.0462,0.0445,0.0435,0.0438,0.0416,0.0392,0.0349,0.0349,0.0342,0.035,0.0286,0.0286,0.0287,0.0352,0.0358,0.0364,0,0,0,0,0,0,0.0469,0.0475,0.0468,0.0486,0.0479,0.0461,0.0463,0.0451,0.0435,0.0432,0.0398,0.039,0.0381,0.0355,0.0356,0.0338,0.0312,0.0311,0.0364,0.037,0.0375,0.039,0.0324,0,0,0,0,0,0.0477,0.0492,0.0486,0.0498,0.0499,0.0481,0.0477,0.0467,0.0453,0.0445,0.0422,0.0396,0.0376,0.0366,0.0343,0.0336,0.0306,0.0334,0.0339,0.0344,0.0351,0.0315,0.0318,0.0289,0.0289,0.0289,0,0,0.0481,0.0488,0.0494,0.0501,0.0494,0.0508,0.0478,0.0479,0.0487,0.044,0.0442,0.0412,0.0378,0.037,0.0363,0.0352,0.0336,0.0345,0.0349,0.0353,0.0316,0.0319,0.0321,0.0289,0.0289,0.0289,0,0,0.0505,0.0508,0.0528,0.0531,0.0531,0.0526,0.0531,0.0518,0.0508,0.0505,0.0473,0.0453,0.0424,0.0403,0.0388,0.0405,0.0363,0.0395,0.0435,0.0401,0.0403,0.0404,0.0374,0.0372,0.0399,0.0399,0.0399,0,0.0508,0.0541,0.0531,0.0554,0.0566,0.0541,0.0568,0.0555,0.0538,0.0537,0.0515,0.0474,0.0441,0.0434,0.0438,0.0417,0.0391,0.0418,0.0408,0.0409,0.0409,0.0377,0.0375,0.0403,0.0402,0.0402,0.0401,0,0.0551,0.0575,0.0589,0.0616,0.0624,0.0643,0.0633,0.0629,0.0614,0.0605,0.0589,0.054,0.0519,0.05,0.0474,0.0464,0.0443,0.0419,0.0397,0.0417,0.0381,0.0377,0.0407,0.0406,0.0405,0.0404,0,0,0.0567,0.0612,0.0617,0.0644,0.0663,0.0676,0.0688,0.0698,0.0715,0.0676,0.0689,0.0639,0.0611,0.0591,0.0548,0.0514,0.049,0.0473,0.047,0.045,0.0417,0.0426,0.0421,0.0464,0.0464,0.0464,0.0392,0,0.0604,0.0669,0.0678,0.0736,0.0771,0.0759,0.0779,0.0779,0.0772,0.0774,0.0712,0.0709,0.0647,0.0638,0.0593,0.052,0.0482,0.0512,0.0393,0.039,0.0402,0.0418,0.04,0.0337,0.0388,0.0387,0.0386,0,0.0647,0.0689,0.0757,0.0812,0.0825,0.0852,0.0887,0.0903,0.0893,0.0884,0.0859,0.0814,0.0762,0.0703,0.0584,0.0606,0.052,0.0452,0.0447,0.043,0.0392,0.0323,0.0326,0.0379,0.038,0.038,0.0381,0,0.068,0.0744,0.0806,0.0826,0.0878,0.0898,0.0925,0.0939,0.0972,0.096,0.0978,0.0901,0.0871,0.0751,0.0613,0.0598,0.0478,0.0438,0.0361,0.0361,0.0309,0.0305,0.035,0.035,0.035,0.035,0.035,0,0.0726,0.0772,0.0827,0.0862,0.0933,0.0951,0.1024,0.1029,0.1064,0.1125,0.1044,0.1062,0.0882,0.0792,0.0648,0.0504,0.0503,0.0375,0.0346,0.0334,0.0333,0.0339,0.0339,0.0347,0.0348,0.0348,0.0349,0,0.075,0.0787,0.0863,0.0929,0.0954,0.1007,0.1098,0.1156,0.1172,0.1244,0.1246,0.1182,0.1075,0.0893,0.0703,0.0567,0.0416,0.0362,0.0365,0.0338,0.0308,0.0312,0.0267,0.0267,0.0267,0.0267,0.0267,0,0.0771,0.0814,0.0911,0.0966,0.0999,0.1083,0.1151,0.1203,0.128,0.1329,0.1372,0.129,0.1267,0.0994,0.0723,0.048,0.0443,0.0302,0.0268,0.0326,0.0301,0.0306,0.031,0.0217,0.0217,0.0217,0.0216,0,0.0809,0.0842,0.0906,0.1022,0.1105,0.1208,0.131,0.1389,0.1464,0.1535,0.1608,0.1593,0.1331,0.1078,0.0734,0.0551,0.0339,0.0288,0.0337,0.0258,0.0277,0.0255,0.026,0.0213,0.0213,0.0213,0.0213,0.0214,0.0834,0.0886,0.0976,0.1085,0.1187,0.1324,0.1433,0.1539,0.1678,0.1779,0.1764,0.1738,0.1426,0.099,0.0668,0.032,0.0357,0.0214,0.0215,0.0217,0.0241,0.0261,0.0197,0.0197,0.0197,0.0198,0.0198,0,0.0858,0.0935,0.1037,0.1175,0.1286,0.1349,0.1537,0.1629,0.1797,0.1881,0.1936,0.1634,0.1351,0.1001,0.0495,0.0211,0.0153,0.0099,0.0087,0.0094,0.0099,0.0116,0.0038,0.0037,0.0036,0.0035,0,0,0.0876,0.0969,0.1028,0.1221,0.1335,0.1497,0.162,0.1754,0.1852,0.1934,0.1931,0.1862,0.1469,0.106,0.0645,0.0356,0.0289,0.0279,0.0437,0.048,0.0488,0.0195,0.0234,0,0,0,0,0]}],[{"header":{"parameterUnit":"m.s-1","parameterCategory":2,"la1":30.2991,"la2":30.254,"lo1":-89.0895,"lo2":-89.0444,"dy":0.0017,"dx":0.0017,"nx":28,"ny":28,"refTime":"2026-02-15T09:00:00:Z","depth":"4","parameterNumber":2,"parameterNumberName":"U-component_of_CURRENTS"},"data":[0,0,0,0,0,0,0,0,0,0,0,0,0,0,0,0,0,0,0,0,0,0,0,0,0,0,0,0,0,0,0,0,0,0,0,0,0,0,0,0,0,0,0,0,0,0,0,0,0,0,0,0,0,0,0,0,0,0,0.1739,0.174,0,0.1804,0.1805,0.1805,0.1862,0.1862,0.1863,0.1864,0.1947,0.1949,0.195,0,0,0,0,0,0,0,0,0,0,0,0,0,0.1668,0.1669,0.1739,0.174,0.1741,0.1804,0.1805,0.1805,0.1861,0.1862,0.1863,0.1864,0.1947,0.1949,0.195,0,0,0,0,0,0,0,0,0,0,0,0,0,0.1711,0.1669,0.1739,0.1778,0.1782,0.1804,0.1805,0.1805,0.1861,0.1862,0.1864,0.1865,0.1946,0.1948,0.1951,0.194,0,0,0.1957,0.1958,0,0,0,0,0,0,0,0,0.1708,0.1713,0.1771,0.1775,0.178,0.1828,0.181,0.1852,0.1861,0.1829,0.1864,0.1865,0.1909,0.1914,0.1921,0.1944,0.1947,0.1957,0.1959,0.196,0.196,0,0,0,0,0,0,0,0.1705,0.1711,0.1763,0.1772,0.1778,0.1794,0.1801,0.1818,0.186,0.1832,0.1837,0.1847,0.1912,0.1919,0.1924,0.1948,0.1957,0.1959,0.1961,0.1962,0.2082,0.2084,0,0,0,0,0,0,0.17,0.1708,0.1761,0.1765,0.1749,0.1794,0.1802,0.181,0.186,0.1869,0.1845,0.1849,0.1915,0.1921,0.1927,0.2018,0.196,0.1962,0.1963,0.208,0.2082,0.2084,0,0,0,0,0,0,0.1698,0.1703,0.1758,0.174,0.1748,0.1794,0.1802,0.181,0.1855,0.187,0.188,0.1887,0.1916,0.1924,0.198,0.2018,0.1963,0.1965,0.2078,0.2081,0.2083,0.2136,0,0,0,0,0,0,0.1695,0.1702,0.1724,0.1739,0.1749,0.1791,0.1801,0.1811,0.1858,0.1864,0.1908,0.1915,0.1917,0.1976,0.1982,0.202,0.1966,0.2075,0.2079,0.2082,0.2132,0.2141,0.2148,0,0,0,0,0,0.1692,0.1709,0.1724,0.1732,0.1771,0.1792,0.1799,0.1835,0.1859,0.188,0.1919,0.1916,0.2003,0.198,0.1986,0.2025,0.2074,0.2078,0.2082,0.2129,0.2139,0.2148,0,0,0,0,0,0,0.1692,0.1717,0.1734,0.176,0.1786,0.1803,0.1833,0.1855,0.1901,0.1921,0.1936,0.1946,0.201,0.2011,0.1985,0.2072,0.2039,0.2045,0.2072,0.2082,0.209,0.2088,0.1968,0,0,0,0,0,0.17,0.1723,0.1744,0.177,0.1786,0.1817,0.1839,0.1862,0.1895,0.1919,0.195,0.1988,0.2024,0.2049,0.2075,0.212,0.2119,0.2151,0.2159,0.2165,0.2169,0.2207,0.2218,0.2098,0.2098,0.2098,0,0,0.1708,0.1727,0.1741,0.1773,0.1799,0.1826,0.1834,0.1876,0.1911,0.1919,0.199,0.2018,0.2043,0.2096,0.2125,0.2108,0.22,0.2171,0.2176,0.2176,0.2212,0.2224,0.2234,0.2101,0.2101,0.21,0,0,0.172,0.1752,0.1771,0.1796,0.184,0.1858,0.1878,0.1917,0.1952,0.2011,0.2032,0.2085,0.2138,0.2162,0.218,0.2246,0.224,0.2263,0.2302,0.2339,0.2349,0.2357,0.2369,0.2378,0.2267,0.2267,0.2267,0,0.1734,0.1756,0.1782,0.1807,0.1835,0.1876,0.1904,0.1942,0.1999,0.2032,0.2046,0.2147,0.2167,0.2231,0.2258,0.2264,0.2277,0.2262,0.2348,0.2357,0.2365,0.2374,0.2384,0.227,0.227,0.227,0.2269,0,0.1746,0.1783,0.1799,0.1845,0.1877,0.1911,0.1957,0.2005,0.2057,0.2096,0.2183,0.2218,0.2276,0.2296,0.23,0.2373,0.2361,0.2352,0.232,0.238,0.2386,0.2395,0.2275,0.2274,0.2273,0.2272,0,0,0.1727,0.1794,0.1805,0.1834,0.1901,0.1924,0.1991,0.2053,0.2111,0.218,0.2249,0.232,0.2352,0.2375,0.2393,0.2428,0.2493,0.2421,0.2422,0.2424,0.2567,0.2399,0.2392,0.2506,0.2508,0.251,0.2547,0,0.1733,0.1779,0.1815,0.1875,0.1901,0.1963,0.2022,0.2091,0.216,0.224,0.2299,0.2378,0.238,0.2423,0.246,0.2491,0.252,0.2483,0.2516,0.2516,0.2353,0.2398,0.2516,0.2554,0.2556,0.2557,0.2558,0,0.1724,0.176,0.181,0.189,0.191,0.196,0.2059,0.212,0.2234,0.2295,0.2382,0.2432,0.2512,0.2499,0.258,0.2561,0.2571,0.2583,0.2584,0.2412,0.2364,0.2484,0.2574,0.2572,0.2571,0.257,0.2569,0,0.1675,0.1754,0.1795,0.1823,0.1919,0.1967,0.2032,0.2143,0.2206,0.2341,0.2401,0.25,0.2563,0.2602,0.2634,0.2621,0.2703,0.2681,0.2534,0.2522,0.2639,0.2629,0.2728,0.2728,0.2728,0.2728,0.2727,0,0.1644,0.1684,0.1785,0.1807,0.1872,0.1955,0.2044,0.2125,0.225,0.232,0.2433,0.2488,0.2597,0.265,0.266,0.2619,0.2726,0.2541,0.2522,0.266,0.2652,0.2644,0.2634,0.2729,0.2729,0.2728,0.2728,0,0.1576,0.1643,0.1697,0.1808,0.1848,0.19,0.2039,0.2098,0.2234,0.2325,0.2372,0.2511,0.2574,0.2644,0.2712,0.2634,0.2624,0.2582,0.2724,0.2713,0.2409,0.2402,0.2408,0.2402,0.2398,0.2394,0.239,0,0.1538,0.1561,0.1681,0.1716,0.1772,0.1866,0.1925,0.2074,0.2133,0.2306,0.2328,0.2451,0.2518,0.2479,0.2567,0.2567,0.2539,0.2506,0.245,0.2397,0.2379,0.2379,0.2378,0.2383,0.2382,0.238,0.2379,0,0.1466,0.1526,0.157,0.1642,0.1709,0.177,0.1868,0.1895,0.2053,0.2191,0.2231,0.2261,0.2326,0.2371,0.2394,0.239,0.2511,0.2456,0.2465,0.2412,0.2366,0.2353,0.2358,0.2363,0.2365,0.2367,0.2368,0,0.1419,0.1429,0.1499,0.1546,0.1624,0.1644,0.1712,0.1773,0.1848,0.2033,0.204,0.2169,0.2302,0.2279,0.2299,0.2284,0.2243,0.2154,0.2178,0.2197,0.2109,0.202,0.1893,0,0,0,0,0,0.136,0.1357,0.1396,0.1435,0.1505,0.1548,0.1656,0.1728,0.1872,0.1846,0.194,0.1987,0.2017,0.2092,0.2034,0.2199,0.225,0.2119,0.2161,0.2272,0.2291,0.2206,0,0,0,0,0,0,0.1318,0.1351,0.1354,0.133,0.1338,0.1397,0.1458,0.1557,0.1556,0.1711,0.1748,0.1858,0.1931,0.2034,0.1996,0.2014,0.1994,0.2205,0.2199,0.2261,0.2278,0.2293,0.2213,0,0,0,0,0]},{"header":{"parameterUnit":"m.s-1","parameterCategory":2,"la1":30.2991,"la2":30.254,"lo1":-89.0895,"lo2":-89.0444,"dy":0.0017,"dx":0.0017,"nx":28,"ny":28,"refTime":"2026-02-15T09:00:00:Z","depth":"4","parameterNumber":3,"parameterNumberName":"V-component_of_CURRENTS"},"data":[0,0,0,0,0,0,0,0,0,0,0,0,0,0,0,0,0,0,0,0,0,0,0,0,0,0,0,0,0,0,0,0,0,0,0,0,0,0,0,0,0,0,0,0,0,0,0,0,0,0,0,0,0,0,0,0,0,0,0.0187,0.0187,0,0.0169,0.0169,0.0168,0.0155,0.0155,0.0155,0.0155,0.0116,0.0115,0.0114,0,0,0,0,0,0,0,0,0,0,0,0,0,0.0167,0.0168,0.0187,0.0187,0.0186,0.0169,0.0169,0.0168,0.0155,0.0155,0.0155,0.0155,0.0117,0.0115,0.0114,0,0,0,0,0,0,0,0,0,0,0,0,0,0.0164,0.0168,0.0187,0.0179,0.0178,0.0169,0.0169,0.0168,0.0155,0.0155,0.0155,0.0155,0.0117,0.0116,0.0114,0.0104,0,0,0.0109,0.0109,0,0,0,0,0,0,0,0,0.0164,0.0165,0.018,0.0179,0.0179,0.0165,0.0147,0.0146,0.0155,0.0163,0.0155,0.0155,0.0132,0.0129,0.0124,0.0102,0.0101,0.0109,0.0108,0.0107,0.0107,0,0,0,0,0,0,0,0.0165,0.0165,0.0178,0.018,0.0179,0.0162,0.0162,0.0147,0.0146,0.0162,0.0161,0.0161,0.0131,0.0126,0.0123,0.01,0.0109,0.0108,0.0107,0.0106,0.0085,0.0085,0,0,0,0,0,0,0.0172,0.0166,0.0179,0.0178,0.0173,0.0162,0.0162,0.0169,0.0147,0.0144,0.0161,0.0161,0.0128,0.0125,0.0122,0.0137,0.0107,0.0106,0.0105,0.0085,0.0085,0.0085,0,0,0,0,0,0,0.0171,0.0173,0.018,0.0172,0.0172,0.0163,0.017,0.0168,0.017,0.0147,0.0143,0.0166,0.0128,0.0124,0.012,0.0134,0.0105,0.0104,0.0084,0.0085,0.0085,0.0149,0,0,0,0,0,0,0.0171,0.0173,0.0181,0.0173,0.0172,0.0183,0.017,0.0168,0.017,0.0169,0.0149,0.0145,0.0128,0.0122,0.0118,0.0131,0.0103,0.0084,0.0084,0.0085,0.0146,0.0151,0.0156,0,0,0,0,0,0.017,0.0184,0.0181,0.0183,0.0183,0.0184,0.0182,0.0175,0.0171,0.0175,0.0164,0.0146,0.0124,0.0122,0.0117,0.013,0.0083,0.0084,0.0085,0.0144,0.015,0.0156,0,0,0,0,0,0,0.0177,0.0183,0.0181,0.0194,0.0193,0.0182,0.0186,0.0181,0.0175,0.0175,0.0152,0.0148,0.0148,0.0129,0.0127,0.0124,0.01,0.01,0.0146,0.0152,0.0157,0.0167,0.0101,0,0,0,0,0,0.0183,0.0195,0.0194,0.0204,0.0206,0.0197,0.0197,0.0193,0.0186,0.0184,0.0172,0.0157,0.0146,0.0142,0.0127,0.0128,0.0101,0.0131,0.0136,0.014,0.0145,0.0117,0.0119,0.0088,0.0088,0.0088,0,0,0.0186,0.0192,0.0198,0.0206,0.0204,0.0218,0.0197,0.0202,0.0214,0.018,0.0192,0.0172,0.0149,0.0151,0.0149,0.0139,0.0135,0.0141,0.0145,0.0147,0.0118,0.0121,0.0123,0.0089,0.0089,0.0089,0,0,0.0203,0.0208,0.0224,0.023,0.0234,0.0233,0.0239,0.0236,0.0234,0.024,0.0219,0.021,0.0196,0.0183,0.0175,0.0195,0.016,0.019,0.0227,0.02,0.0203,0.0204,0.0178,0.0177,0.0195,0.0195,0.0195,0,0.0206,0.0233,0.0228,0.0247,0.026,0.0246,0.0271,0.0266,0.0262,0.0266,0.0252,0.0234,0.0212,0.0215,0.0223,0.0207,0.0186,0.021,0.0207,0.0208,0.0209,0.0181,0.0179,0.0199,0.0198,0.0198,0.0198,0,0.0237,0.026,0.0271,0.0297,0.0308,0.0326,0.0326,0.033,0.0327,0.0325,0.0324,0.0292,0.0284,0.0273,0.0255,0.0255,0.0236,0.0216,0.0195,0.0216,0.0185,0.0182,0.0203,0.0202,0.0201,0.02,0,0,0.0243,0.0286,0.0291,0.0317,0.034,0.0354,0.0372,0.0389,0.0411,0.039,0.0408,0.0381,0.0364,0.0352,0.0323,0.0298,0.0283,0.0266,0.0263,0.0245,0.0225,0.0204,0.0198,0.0264,0.0264,0.0264,0.0202,0,0.027,0.0323,0.0338,0.039,0.042,0.0422,0.0446,0.0456,0.0461,0.0472,0.0432,0.0439,0.0395,0.0395,0.0363,0.0305,0.0277,0.0302,0.0202,0.0199,0.0182,0.0194,0.0263,0.02,0.0199,0.0198,0.0198,0,0.0298,0.0334,0.0393,0.0448,0.0461,0.0492,0.0535,0.0557,0.0563,0.0564,0.0556,0.0527,0.0494,0.0449,0.0358,0.0377,0.0309,0.0255,0.0251,0.0207,0.0172,0.0172,0.0191,0.0192,0.0192,0.0193,0.0193,0,0.0312,0.0374,0.0427,0.0446,0.0502,0.0529,0.0561,0.0588,0.0623,0.0631,0.0648,0.0599,0.0582,0.0489,0.0378,0.0371,0.0267,0.0242,0.0156,0.0153,0.0163,0.0161,0.0174,0.0174,0.0174,0.0174,0.0174,0,0.0338,0.0379,0.0441,0.047,0.0538,0.0566,0.064,0.0656,0.07,0.0747,0.0704,0.0713,0.0591,0.0516,0.0402,0.0272,0.0285,0.0165,0.0138,0.0191,0.0193,0.016,0.0159,0.0172,0.0172,0.0173,0.0173,0,0.034,0.038,0.0446,0.0519,0.0549,0.0599,0.0698,0.0749,0.0781,0.0836,0.0842,0.0803,0.0707,0.0572,0.0422,0.0315,0.0186,0.0134,0.0208,0.0185,0.0082,0.0086,0.0035,0.0034,0.0033,0.0032,0.0031,0,0.0345,0.0381,0.0479,0.053,0.0569,0.0653,0.0716,0.0783,0.0844,0.0887,0.0911,0.0847,0.0793,0.0577,0.0424,0.0208,0.0168,0.0095,0.0079,0.009,0.0069,0.0074,0.0078,0.003,0.003,0.0029,0.0029,0,0.0354,0.0391,0.0446,0.0551,0.063,0.0724,0.0818,0.0869,0.0941,0.0966,0.097,0.0864,0.0754,0.0582,0.0416,0.0256,0.0139,0.0083,0.0084,0.0069,0.0083,0.0064,0.0069,0.0025,0.0026,0.0026,0.0026,0,0.0359,0.0396,0.0475,0.0568,0.0669,0.0768,0.0821,0.0897,0.096,0.1005,0.1002,0.0888,0.0833,0.0607,0.0453,0.0296,0.0245,0.0175,0.017,0.0172,0.0221,0.026,0.0238,0,0,0,0,0,0.0361,0.0407,0.0489,0.0596,0.0698,0.0763,0.0878,0.0928,0.0993,0.1002,0.1009,0.0907,0.0694,0.0615,0.0454,0.0409,0.0202,0.0211,0.0114,0.0005,0.001,0.0041,0,0,0,0,0,0,0.0362,0.0432,0.0479,0.0603,0.068,0.0798,0.0876,0.0924,0.0939,0.0975,0.0877,0.084,0.0644,0.0783,0.0442,0.0397,0.0306,0.0123,0.0119,0.0003,0.0007,0.001,0.0044,0,0,0,0,0]}]]